Lid_Strength_Index
12 14 16 16 15 15 16 18 18 16 13 14 15 16 15 13 13 15 15 14 13 14 11 10 8 5 9 5 3 2 3 3 6 7 8 9 9 10 10 9 10 10 11 11
13 15 12 12 13 15 16 18 18 17 15 15 15 16 14 14 14 13 13 13 14 13 13 12 11 11 9 9 3 3 3 5 5 5 6 8 10 10 10 10 11 11 11 10
15 13 10 12 13 14 15 16 16 17 15 15 17 17 14 13 12 13 13 12 12 12 12 12 12 12 12 10 6 3 3 6 5 5 10 11 11 11 12 11 11 11 11 11
14 12 12 13 14 13 16 12 13 14 16 21 16 22 17 15 13 12 12 13 13 12 12 11 12 12 12 10 6 2 3 6 7 9 9 10 9 11 12 12 11 13 11 11
15 14 14 14 13 12 13 11 12 14 15 17 18 19 19 15 14 13 13 12 11 11 11 11 11 11 12 10 5 2 3 4 7 8 9 9 9 11 12 13 12 12 13 11
15 12 12 14 12 10 10 12 13 13 14 19 18 17 17 16 17 16 15 14 13 13 12 11 11 12 12 8 5 4 5 5 8 7 9 9 10 12 13 12 12 13 13 12
17 16 13 13 15 11 12 14 22 21 20 20 16 16 15 16 15 14 14 13 13 13 13 13 12 12 12 8 6 6 5 7 8 6 9 10 11 11 11 12 12 13 14 13
23 23 16 14 15 15 15 13 17 22 22 19 16 18 16 14 13 13 13 13 12 12 13 13 13 12 11 9 8 7 7 9 8 7 10 11 11 11 11 11 12 12 12 13
23 21 15 14 13 13 17 18 12 16 16 18 17 14 13 12 13 13 13 13 13 12 13 13 13 13 12 11 10 9 9 10 9 8 10 10 10 10 11 11 11 12 12 12
20 25 16 13 12 11 13 12 17 18 21 22 19 18 17 15 14 12 13 13 13 12 11 13 13 13 12 12 11 10 10 10 10 11 10 10 11 9 10 11 12 12 12 12
16 19 18 14 16 17 16 16 15 16 16 20 21 18 13 15 14 14 13 11 11 11 11 12 13 12 12 12 12 12 12 11 11 11 11 11 11 11 11 11 11 12 12 13
15 21 22 18 15 13 13 15 16 21 23 19 19 19 11 13 13 13 13 12 10 10 10 11 11 11 12 12 12 12 12 12 12 11 10 11 11 11 12 12 12 12 13 13
17 22 29 24 20 16 17 15 15 15 16 25 21 21 12 12 13 13 14 13 12 12 12 12 12 11 11 12 12 12 12 12 12 12 11 11 12 12 12 12 12 12 13 13
12 18 22 26 22 18 19 17 15 16 22 20 19 18 15 13 14 13 13 13 13 13 12 12 12 12 11 11 11 12 12 12 12 12 12 12 12 12 12 13 13 13 13 14
17 26 20 19 17 17 17 17 16 17 17 20 18 17 14 14 14 14 12 12 13 13 13 13 12 12 12 11 10 11 11 12 12 13 13 13 13 13 13 13 13 13 14 14
14 21 21 21 18 17 18 16 16 16 16 16 16 16 11 13 13 14 12 12 13 12 12 12 12 12 12 12 11 11 11 12 11 12 12 12 12 12 13 13 13 13 14 14
15 21 27 27 21 24 28 20 16 14 13 13 16 13 12 14 13 13 13 11 12 12 12 13 12 11 11 12 11 11 10 11 12 12 12 12 12 13 13 13 13 14 14 14
19 20 20 26 29 34 19 15 13 14 12 11 11 10 10 12 12 11 11 11 11 12 11 11 11 11 11 11 11 11 10 11 12 12 12 12 12 13 13 14 14 14 14 14
13 18 25 28 34 23 18 14 14 15 16 11 11 10 10 11 12 13 10 9 10 12 10 9 9 10 11 11 11 11 11 12 12 12 13 13 13 14 14 14 14 14 14 14
17 19 20 31 28 32 20 14 13 13 19 11 10 10 12 11 15 13 9 9 10 10 10 9 8 8 10 11 10 11 10 11 11 11 11 12 12 12 13 13 13 14 14 14
29 31 22 25 26 25 16 13 12 22 17 11 10 10 10 11 11 9 8 9 9 12 10 9 9 9 9 9 11 11 10 10 10 11 9 11 11 12 11 12 13 13 13 13
22 26 30 35 35 27 14 15 16 12 10 10 9 9 9 9 9 8 8 9 9 11 11 10 11 10 9 9 9 11 11 10 9 9 9 10 10 10 11 11 11 11 11 12
21 17 21 21 21 14 12 12 10 9 10 9 9 8 8 9 9 8 9 9 8 9 9 10 11 10 9 9 9 10 10 11 11 10 9 8 9 9 9 10 10 11 11 11
16 14 16 15 14 12 11 10 9 9 9 8 8 8 8 9 8 8 8 7 8 7 8 9 10 10 10 9 9 10 10 10 11 11 9 9 8 9 9 9 9 10 11 11
14 15 16 15 13 12 11 10 9 9 8 8 7 8 8 8 8 7 7 7 7 7 8 8 9 9 9 10 10 10 11 11 12 11 10 9 9 9 9 9 9 9 9 10
13 13 15 16 11 12 11 9 8 9 9 7 8 8 7 7 8 8 8 8 8 9 8 9 9 10 10 11 12 11 12 13 13 12 10 9 9 9 9 10 10 8 9 9